Time,TemperatureF,DewpointF,PressureIn,WindDirection,WindDirectionDegrees,WindSpeedMPH,WindSpeedGustMPH,Humidity,HourlyPrecipIn,Conditions,Clouds,dailyrainin,SoftwareType,DateUTC
2013-05-15 00:00:00,63.0,54.2,30.21,WNW,301,0.0,0.0,73,0.00,,,0.00,Wunderground v.1.15,2013-05-15 04:00:00,
2013-05-15 00:05:00,62.9,54.5,30.20,WNW,301,0.0,0.0,74,0.00,,,0.00,Wunderground v.1.15,2013-05-15 04:05:00,
2013-05-15 00:10:00,62.8,54.4,30.20,WNW,301,0.0,0.0,74,0.00,,,0.00,Wunderground v.1.15,2013-05-15 04:10:00,
2013-05-15 00:15:00,62.7,54.3,30.20,WNW,301,0.0,0.0,74,0.00,,,0.00,Wunderground v.1.15,2013-05-15 04:15:00,
2013-05-15 00:25:00,62.5,54.5,30.20,WNW,301,0.0,0.0,75,0.00,,,0.00,Wunderground v.1.15,2013-05-15 04:25:00,
2013-05-15 00:30:00,62.4,54.4,30.20,WNW,301,0.0,0.0,75,0.00,,,0.00,Wunderground v.1.15,2013-05-15 04:30:00,
2013-05-15 00:35:00,62.3,54.3,30.20,WNW,301,0.0,0.0,75,0.00,,,0.00,Wunderground v.1.15,2013-05-15 04:35:00,
2013-05-15 00:45:00,62.1,54.8,30.20,WNW,301,0.0,0.0,77,0.00,,,0.00,Wunderground v.1.15,2013-05-15 04:45:00,
2013-05-15 00:50:00,62.1,54.8,30.20,WNW,301,0.0,0.0,77,0.00,,,0.00,Wunderground v.1.15,2013-05-15 04:50:00,
2013-05-15 01:00:00,62.0,54.7,30.20,WNW,301,0.0,0.0,77,0.00,,,0.00,Wunderground v.1.15,2013-05-15 05:00:00,
2013-05-15 01:05:00,61.9,55.0,30.20,WNW,301,0.0,0.0,78,0.00,,,0.00,Wunderground v.1.15,2013-05-15 05:05:00,
2013-05-15 01:15:00,61.8,55.2,30.20,WNW,301,0.0,0.0,79,0.00,,,0.00,Wunderground v.1.15,2013-05-15 05:15:00,
2013-05-15 01:25:00,61.6,55.4,30.20,WNW,301,0.0,0.0,80,0.00,,,0.00,Wunderground v.1.15,2013-05-15 05:25:00,
2013-05-15 01:35:00,61.6,55.7,30.19,WNW,301,0.0,0.0,81,0.00,,,0.00,Wunderground v.1.15,2013-05-15 05:35:00,
2013-05-15 01:40:00,61.6,55.7,30.19,WNW,301,0.0,0.0,81,0.00,,,0.00,Wunderground v.1.15,2013-05-15 05:40:00,
2013-05-15 01:50:00,61.7,56.1,30.19,WNW,301,0.0,0.0,82,0.00,,,0.00,Wunderground v.1.15,2013-05-15 05:50:00,
2013-05-15 02:00:00,61.5,56.0,30.18,WNW,301,0.0,0.0,82,0.00,,,0.00,Wunderground v.1.15,2013-05-15 06:00:00,
2013-05-15 02:05:00,61.4,55.9,30.18,WNW,301,0.0,0.0,82,0.00,,,0.00,Wunderground v.1.15,2013-05-15 06:05:00,
2013-05-15 02:10:00,61.3,55.8,30.18,WNW,301,0.0,0.0,82,0.00,,,0.00,Wunderground v.1.15,2013-05-15 06:10:00,
2013-05-15 02:20:00,61.1,55.9,30.18,WNW,301,0.0,0.0,83,0.00,,,0.00,Wunderground v.1.15,2013-05-15 06:20:00,
2013-05-15 02:30:00,61.0,55.8,30.17,WNW,301,0.0,0.0,83,0.00,,,0.00,Wunderground v.1.15,2013-05-15 06:30:00,
2013-05-15 02:35:00,61.0,55.8,30.17,WNW,301,0.0,0.0,83,0.00,,,0.00,Wunderground v.1.15,2013-05-15 06:35:00,
2013-05-15 02:40:00,61.0,55.8,30.17,WNW,301,0.0,0.0,83,0.00,,,0.00,Wunderground v.1.15,2013-05-15 06:40:00,
2013-05-15 02:50:00,60.9,56.0,30.17,WNW,301,0.0,0.0,84,0.00,,,0.00,Wunderground v.1.15,2013-05-15 06:50:00,
2013-05-15 03:00:00,60.7,55.8,30.17,WNW,301,0.0,0.0,84,0.00,,,0.00,Wunderground v.1.15,2013-05-15 07:00:00,
2013-05-15 03:05:00,60.7,55.8,30.17,WNW,301,0.0,0.0,84,0.00,,,0.00,Wunderground v.1.15,2013-05-15 07:05:00,
2013-05-15 03:10:00,60.6,55.7,30.17,WNW,301,0.0,0.0,84,0.00,,,0.00,Wunderground v.1.15,2013-05-15 07:10:00,
2013-05-15 03:20:00,60.4,55.9,30.17,WNW,301,0.0,0.0,85,0.00,,,0.00,Wunderground v.1.15,2013-05-15 07:20:00,
2013-05-15 03:30:00,60.2,55.7,30.16,WNW,301,0.0,0.0,85,0.00,,,0.00,Wunderground v.1.15,2013-05-15 07:30:00,
2013-05-15 03:40:00,59.8,55.6,30.16,WNW,301,0.0,0.0,86,0.00,,,0.00,Wunderground v.1.15,2013-05-15 07:40:00,
2013-05-15 03:50:00,59.5,55.3,30.16,WNW,301,0.0,0.0,86,0.00,,,0.00,Wunderground v.1.15,2013-05-15 07:50:00,
2013-05-15 04:00:00,59.3,55.1,30.15,WNW,301,0.0,0.0,86,0.00,,,0.00,Wunderground v.1.15,2013-05-15 08:00:00,
2013-05-15 04:05:00,59.2,55.3,30.15,WNW,301,0.0,0.0,87,0.00,,,0.00,Wunderground v.1.15,2013-05-15 08:05:00,
2013-05-15 04:15:00,59.0,55.1,30.15,WNW,301,0.0,0.0,87,0.00,,,0.00,Wunderground v.1.15,2013-05-15 08:15:00,
2013-05-15 04:25:00,58.8,54.9,30.16,WNW,301,0.0,0.0,87,0.00,,,0.00,Wunderground v.1.15,2013-05-15 08:25:00,
2013-05-15 04:35:00,58.6,54.7,30.16,WNW,301,0.0,0.0,87,0.00,,,0.00,Wunderground v.1.15,2013-05-15 08:35:00,
2013-05-15 04:45:00,58.4,54.5,30.16,WNW,301,0.0,0.0,87,0.00,,,0.00,Wunderground v.1.15,2013-05-15 08:45:00,
2013-05-15 04:55:00,58.5,54.6,30.16,WNW,301,0.0,0.0,87,0.00,,,0.00,Wunderground v.1.15,2013-05-15 08:55:00,
2013-05-15 05:05:00,58.7,54.5,30.17,WNW,301,0.0,0.0,86,0.00,,,0.00,Wunderground v.1.15,2013-05-15 09:05:00,
2013-05-15 05:15:00,58.7,54.5,30.17,WNW,301,0.0,0.0,86,0.00,,,0.00,Wunderground v.1.15,2013-05-15 09:15:00,
2013-05-15 05:25:00,58.7,54.5,30.17,WNW,301,0.0,0.0,86,0.00,,,0.00,Wunderground v.1.15,2013-05-15 09:25:00,
2013-05-15 05:35:00,58.6,54.4,30.17,WNW,301,0.0,0.0,86,0.00,,,0.00,Wunderground v.1.15,2013-05-15 09:35:00,
2013-05-15 05:45:00,58.6,54.4,30.18,WNW,301,0.0,0.0,86,0.00,,,0.00,Wunderground v.1.15,2013-05-15 09:45:00,
2013-05-15 05:55:00,58.6,54.4,30.18,WNW,301,0.0,0.0,86,0.00,,,0.00,Wunderground v.1.15,2013-05-15 09:55:00,
2013-05-15 06:05:00,58.6,54.4,30.18,WNW,301,0.0,0.0,86,0.00,,,0.00,Wunderground v.1.15,2013-05-15 10:05:00,
2013-05-15 06:15:00,58.6,54.1,30.18,WNW,301,0.0,0.0,85,0.00,,,0.00,Wunderground v.1.15,2013-05-15 10:15:00,
2013-05-15 06:20:00,58.6,54.1,30.18,WNW,301,0.0,0.0,85,0.00,,,0.00,Wunderground v.1.15,2013-05-15 10:20:00,
2013-05-15 06:30:00,58.5,54.0,30.19,WNW,301,0.0,0.0,85,0.00,,,0.00,Wunderground v.1.15,2013-05-15 10:30:00,
2013-05-15 06:35:00,58.5,54.0,30.19,WNW,301,0.0,0.0,85,0.00,,,0.00,Wunderground v.1.15,2013-05-15 10:35:00,
2013-05-15 06:45:00,58.4,53.9,30.19,WNW,301,0.0,0.0,85,0.00,,,0.00,Wunderground v.1.15,2013-05-15 10:45:00,
2013-05-15 06:50:00,58.2,53.7,30.19,WNW,301,0.0,0.0,85,0.00,,,0.00,Wunderground v.1.15,2013-05-15 10:50:00,
2013-05-15 07:00:00,58.0,53.8,30.19,WNW,301,0.0,0.0,86,0.00,,,0.00,Wunderground v.1.15,2013-05-15 11:00:00,
2013-05-15 07:05:00,58.0,53.8,30.20,WNW,301,0.0,0.0,86,0.00,,,0.00,Wunderground v.1.15,2013-05-15 11:05:00,
2013-05-15 07:15:00,58.0,54.2,30.20,WNW,301,0.0,0.0,87,0.00,,,0.00,Wunderground v.1.15,2013-05-15 11:15:00,
2013-05-15 07:20:00,58.0,54.2,30.20,WNW,301,0.0,0.0,87,0.00,,,0.00,Wunderground v.1.15,2013-05-15 11:20:00,
2013-05-15 07:30:00,58.5,54.3,30.20,WNW,301,0.0,0.0,86,0.00,,,0.00,Wunderground v.1.15,2013-05-15 11:30:00,
2013-05-15 07:35:00,58.9,54.4,30.20,WNW,301,0.0,0.0,85,0.00,,,0.00,Wunderground v.1.15,2013-05-15 11:35:00,
2013-05-15 07:45:00,59.7,54.9,30.20,WNW,301,0.0,0.0,84,0.00,,,0.00,Wunderground v.1.15,2013-05-15 11:45:00,
2013-05-15 07:50:00,60.1,55.2,30.20,WNW,301,0.0,0.0,84,0.00,,,0.00,Wunderground v.1.15,2013-05-15 11:50:00,
2013-05-15 08:00:00,61.3,56.1,30.21,WNW,301,0.0,0.0,83,0.00,,,0.00,Wunderground v.1.15,2013-05-15 12:00:00,
2013-05-15 08:05:00,62.0,56.4,30.21,WNW,301,0.0,0.0,82,0.00,,,0.00,Wunderground v.1.15,2013-05-15 12:05:00,
2013-05-15 08:15:00,63.3,57.4,30.21,WNW,301,0.0,0.0,81,0.00,,,0.00,Wunderground v.1.15,2013-05-15 12:15:00,
2013-05-15 08:20:00,63.9,58.0,30.21,WNW,301,0.0,0.0,81,0.00,,,0.00,Wunderground v.1.15,2013-05-15 12:20:00,
2013-05-15 08:30:00,65.1,58.4,30.22,WNW,301,0.0,0.0,79,0.00,,,0.00,Wunderground v.1.15,2013-05-15 12:30:00,
2013-05-15 08:40:00,66.2,58.8,30.22,WNW,301,0.0,0.0,77,0.00,,,0.00,Wunderground v.1.15,2013-05-15 12:40:00,
2013-05-15 08:45:00,66.7,58.9,30.22,WNW,296,0.0,0.0,76,0.00,,,0.00,Wunderground v.1.15,2013-05-15 12:45:00,
2013-05-15 08:50:00,67.1,58.9,30.22,WNW,288,0.0,0.0,75,0.00,,,0.00,Wunderground v.1.15,2013-05-15 12:50:00,
2013-05-15 09:00:00,68.3,59.3,30.23,WNW,286,1.0,1.0,73,0.00,,,0.00,Wunderground v.1.15,2013-05-15 13:00:00,
2013-05-15 09:05:00,69.0,59.6,30.23,WNW,287,1.0,1.0,72,0.00,,,0.00,Wunderground v.1.15,2013-05-15 13:05:00,
2013-05-15 09:20:00,70.6,60.3,30.23,WNW,290,1.0,2.0,70,0.00,,,0.00,Wunderground v.1.15,2013-05-15 13:20:00,
2013-05-15 09:30:00,71.5,60.4,30.23,NW,311,1.0,2.0,68,0.00,,,0.00,Wunderground v.1.15,2013-05-15 13:30:00,
2013-05-15 09:35:00,72.0,60.4,30.23,WNW,297,1.0,4.0,67,0.00,,,0.00,Wunderground v.1.15,2013-05-15 13:35:00,
2013-05-15 09:45:00,72.4,59.5,30.23,NW,304,3.0,3.0,64,0.00,,,0.00,Wunderground v.1.15,2013-05-15 13:45:00,
2013-05-15 09:50:00,72.9,59.6,30.23,WSW,250,2.0,2.0,63,0.00,,,0.00,Wunderground v.1.15,2013-05-15 13:50:00,
2013-05-15 10:00:00,73.5,58.8,30.22,West,281,4.0,4.0,60,0.00,,,0.00,Wunderground v.1.15,2013-05-15 14:00:00,
2013-05-15 10:05:00,73.8,58.6,30.22,WNW,292,3.0,5.0,59,0.00,,,0.00,Wunderground v.1.15,2013-05-15 14:05:00,
2013-05-15 10:15:00,74.3,57.6,30.22,West,276,3.0,4.0,56,0.00,,,0.00,Wunderground v.1.15,2013-05-15 14:15:00,
2013-05-15 10:25:00,75.0,58.2,30.22,NW,315,2.0,3.0,56,0.00,,,0.00,Wunderground v.1.15,2013-05-15 14:25:00,
2013-05-15 10:35:00,75.2,56.4,30.22,NW,304,3.0,4.0,52,0.00,,,0.00,Wunderground v.1.15,2013-05-15 14:35:00,
2013-05-15 10:45:00,75.6,53.9,30.22,WNW,297,3.0,3.0,47,0.00,,,0.00,Wunderground v.1.15,2013-05-15 14:45:00,
2013-05-15 11:00:00,76.4,54.7,30.21,WNW,294,2.0,4.0,47,0.00,,,0.00,Wunderground v.1.15,2013-05-15 15:00:00,
2013-05-15 11:05:00,76.9,56.3,30.22,WNW,302,2.0,4.0,49,0.00,,,0.00,Wunderground v.1.15,2013-05-15 15:05:00,
2013-05-15 11:15:00,77.6,55.8,30.21,South,180,1.0,1.0,47,0.00,,,0.00,Wunderground v.1.15,2013-05-15 15:15:00,
2013-05-15 11:20:00,78.1,55.6,30.21,West,279,1.0,3.0,46,0.00,,,0.00,Wunderground v.1.15,2013-05-15 15:20:00,
2013-05-15 11:30:00,77.8,55.4,30.22,NNW,338,2.0,2.0,46,0.00,,,0.00,Wunderground v.1.15,2013-05-15 15:30:00,
2013-05-15 11:35:00,78.5,56.0,30.22,NE,41,1.0,2.0,46,0.00,,,0.00,Wunderground v.1.15,2013-05-15 15:35:00,
2013-05-15 11:45:00,79.2,56.0,30.21,NE,41,1.0,1.0,45,0.00,,,0.00,Wunderground v.1.15,2013-05-15 15:45:00,
2013-05-15 11:55:00,79.8,55.3,30.20,NE,42,1.0,1.0,43,0.00,,,0.00,Wunderground v.1.15,2013-05-15 15:55:00,
2013-05-15 12:00:00,80.6,55.4,30.21,NE,44,0.0,0.0,42,0.00,,,0.00,Wunderground v.1.15,2013-05-15 16:00:00,
2013-05-15 12:05:00,81.2,57.2,30.21,ENE,68,0.0,0.0,44,0.00,,,0.00,Wunderground v.1.15,2013-05-15 16:05:00,
2013-05-15 12:20:00,82.0,57.3,30.20,SE,138,0.0,1.0,43,0.00,,,0.00,Wunderground v.1.15,2013-05-15 16:20:00,
2013-05-15 12:40:00,82.4,58.9,30.20,SE,130,0.0,0.0,45,0.00,,,0.00,Wunderground v.1.15,2013-05-15 16:40:00,
2013-05-15 12:50:00,82.1,59.3,30.20,ESE,103,0.0,0.0,46,0.00,,,0.00,Wunderground v.1.15,2013-05-15 16:50:00,
2013-05-15 13:00:00,82.4,60.7,30.20,ESE,117,0.0,1.0,48,0.00,,,0.00,Wunderground v.1.15,2013-05-15 17:00:00,
2013-05-15 13:05:00,82.4,60.1,30.19,ESE,117,0.0,1.0,47,0.00,,,0.00,Wunderground v.1.15,2013-05-15 17:05:00,
2013-05-15 13:15:00,83.1,60.2,30.18,ESE,114,0.0,0.0,46,0.00,,,0.00,Wunderground v.1.15,2013-05-15 17:15:00,
2013-05-15 13:30:00,83.4,59.8,30.18,SE,136,0.0,0.0,45,0.00,,,0.00,Wunderground v.1.15,2013-05-15 17:30:00,
2013-05-15 13:35:00,83.7,59.5,30.18,SE,134,0.0,0.0,44,0.00,,,0.00,Wunderground v.1.15,2013-05-15 17:35:00,
2013-05-15 13:50:00,83.0,59.5,30.17,ESE,117,1.0,1.0,45,0.00,,,0.00,Wunderground v.1.15,2013-05-15 17:50:00,
2013-05-15 14:00:00,83.3,59.1,30.17,ESE,117,0.0,0.0,44,0.00,,,0.00,Wunderground v.1.15,2013-05-15 18:00:00,
2013-05-15 14:05:00,83.5,58.6,30.17,ESE,117,1.0,1.0,43,0.00,,,0.00,Wunderground v.1.15,2013-05-15 18:05:00,
2013-05-15 14:15:00,83.4,59.2,30.16,ESE,119,0.0,2.0,44,0.00,,,0.00,Wunderground v.1.15,2013-05-15 18:15:00,
2013-05-15 14:25:00,84.0,59.1,30.15,ESE,123,1.0,1.0,43,0.00,,,0.00,Wunderground v.1.15,2013-05-15 18:25:00,
2013-05-15 14:35:00,84.2,58.6,30.16,ESE,123,1.0,3.0,42,0.00,,,0.00,Wunderground v.1.15,2013-05-15 18:35:00,
2013-05-15 14:45:00,84.3,58.7,30.15,ESE,122,0.0,1.0,42,0.00,,,0.00,Wunderground v.1.15,2013-05-15 18:45:00,
2013-05-15 14:55:00,84.2,58.6,30.15,ESE,121,1.0,1.0,42,0.00,,,0.00,Wunderground v.1.15,2013-05-15 18:55:00,
2013-05-15 15:05:00,84.7,57.0,30.14,SE,126,1.0,2.0,39,0.00,,,0.00,Wunderground v.1.15,2013-05-15 19:05:00,
2013-05-15 15:15:00,84.8,56.4,30.14,ENE,60,1.0,2.0,38,0.00,,,0.00,Wunderground v.1.15,2013-05-15 19:15:00,
2013-05-15 15:25:00,84.7,57.0,30.13,East,92,1.0,2.0,39,0.00,,,0.00,Wunderground v.1.15,2013-05-15 19:25:00,
2013-05-15 15:40:00,84.9,56.5,30.12,ESE,119,1.0,1.0,38,0.00,,,0.00,Wunderground v.1.15,2013-05-15 19:40:00,
2013-05-15 15:50:00,85.3,56.8,30.12,ESE,119,1.0,1.0,38,0.00,,,0.00,Wunderground v.1.15,2013-05-15 19:50:00,
2013-05-15 15:55:00,85.3,55.3,30.11,ESE,115,1.0,1.0,36,0.00,,,0.00,Wunderground v.1.15,2013-05-15 19:55:00,
2013-05-15 16:05:00,85.5,55.5,30.11,SE,128,1.0,1.0,36,0.00,,,0.00,Wunderground v.1.15,2013-05-15 20:05:00,
2013-05-15 16:20:00,85.5,57.0,30.10,SE,128,1.0,1.0,38,0.00,,,0.00,Wunderground v.1.15,2013-05-15 20:20:00,
2013-05-15 16:30:00,85.7,57.2,30.10,SE,128,1.0,1.0,38,0.00,,,0.00,Wunderground v.1.15,2013-05-15 20:30:00,
2013-05-15 16:40:00,86.2,58.3,30.10,SE,128,1.0,1.0,39,0.00,,,0.00,Wunderground v.1.15,2013-05-15 20:40:00,
2013-05-15 17:00:00,86.5,59.3,30.10,East,96,1.0,1.0,40,0.00,,,0.00,Wunderground v.1.15,2013-05-15 21:00:00,
2013-05-15 17:05:00,86.3,59.8,30.10,East,98,1.0,1.0,41,0.00,,,0.00,Wunderground v.1.15,2013-05-15 21:05:00,
2013-05-15 17:10:00,86.2,59.7,30.10,East,98,0.0,1.0,41,0.00,,,0.00,Wunderground v.1.15,2013-05-15 21:10:00,
2013-05-15 17:20:00,85.8,61.4,30.09,East,101,0.0,0.0,44,0.00,,,0.00,Wunderground v.1.15,2013-05-15 21:20:00,
2013-05-15 17:30:00,85.7,59.3,30.09,East,101,0.0,0.0,41,0.00,,,0.00,Wunderground v.1.15,2013-05-15 21:30:00,
2013-05-15 17:40:00,85.3,59.6,30.09,ESE,113,0.0,0.0,42,0.00,,,0.00,Wunderground v.1.15,2013-05-15 21:40:00,
2013-05-15 17:50:00,84.6,62.1,30.08,ESE,116,1.0,2.0,47,0.00,,,0.00,Wunderground v.1.15,2013-05-15 21:50:00,
2013-05-15 18:05:00,83.7,61.9,30.08,SSE,150,1.0,2.0,48,0.00,,,0.00,Wunderground v.1.15,2013-05-15 22:05:00,
2013-05-15 18:15:00,83.3,61.6,30.08,SSE,148,1.0,1.0,48,0.00,,,0.00,Wunderground v.1.15,2013-05-15 22:15:00,
2013-05-15 18:20:00,83.0,61.3,30.08,SSE,148,1.0,1.0,48,0.00,,,0.00,Wunderground v.1.15,2013-05-15 22:20:00,
2013-05-15 18:30:00,82.7,61.6,30.07,SSE,148,1.0,1.0,49,0.00,,,0.00,Wunderground v.1.15,2013-05-15 22:30:00,
2013-05-15 18:35:00,82.3,60.6,30.07,SSE,148,1.0,1.0,48,0.00,,,0.00,Wunderground v.1.15,2013-05-15 22:35:00,
2013-05-15 18:50:00,81.5,61.1,30.07,SSE,148,0.0,0.0,50,0.00,,,0.00,Wunderground v.1.15,2013-05-15 22:50:00,
2013-05-15 19:00:00,81.1,62.9,30.07,SSE,148,0.0,0.0,54,0.00,,,0.00,Wunderground v.1.15,2013-05-15 23:00:00,
2013-05-15 19:05:00,80.8,61.0,30.07,SSE,148,0.0,1.0,51,0.00,,,0.00,Wunderground v.1.15,2013-05-15 23:05:00,
2013-05-15 19:15:00,80.4,61.7,30.07,SSE,148,0.0,1.0,53,0.00,,,0.00,Wunderground v.1.15,2013-05-15 23:15:00,
2013-05-15 19:25:00,80.0,62.4,30.07,SSE,148,0.0,0.0,55,0.00,,,0.00,Wunderground v.1.15,2013-05-15 23:25:00,
2013-05-15 19:40:00,79.2,61.6,30.07,SSE,148,0.0,0.0,55,0.00,,,0.00,Wunderground v.1.15,2013-05-15 23:40:00,
2013-05-15 19:50:00,78.6,61.1,30.07,SSE,148,0.0,0.0,55,0.00,,,0.00,Wunderground v.1.15,2013-05-15 23:50:00,
2013-05-15 20:00:00,78.0,60.5,30.07,SSE,148,0.0,0.0,55,0.00,,,0.00,Wunderground v.1.15,2013-05-16 00:00:00,
2013-05-15 20:10:00,77.6,60.2,30.08,SSE,148,0.0,0.0,55,0.00,,,0.00,Wunderground v.1.15,2013-05-16 00:10:00,
2013-05-15 20:20:00,77.0,59.6,30.08,SSE,153,0.0,0.0,55,0.00,,,0.00,Wunderground v.1.15,2013-05-16 00:20:00,
2013-05-15 20:30:00,76.6,59.7,30.08,SSE,150,0.0,0.0,56,0.00,,,0.00,Wunderground v.1.15,2013-05-16 00:30:00,
2013-05-15 20:40:00,76.1,59.3,30.08,SE,143,0.0,0.0,56,0.00,,,0.00,Wunderground v.1.15,2013-05-16 00:40:00,
2013-05-15 20:50:00,75.6,59.3,30.08,SE,142,0.0,0.0,57,0.00,,,0.00,Wunderground v.1.15,2013-05-16 00:50:00,
2013-05-15 21:00:00,75.3,59.0,30.08,SE,144,0.0,0.0,57,0.00,,,0.00,Wunderground v.1.15,2013-05-16 01:00:00,
2013-05-15 21:10:00,74.9,60.1,30.08,SE,140,0.0,0.0,60,0.00,,,0.00,Wunderground v.1.15,2013-05-16 01:10:00,
2013-05-15 21:20:00,74.5,59.2,30.09,SE,140,0.0,0.0,59,0.00,,,0.00,Wunderground v.1.15,2013-05-16 01:20:00,
2013-05-15 21:30:00,74.0,58.3,30.09,SE,143,0.0,0.0,58,0.00,,,0.00,Wunderground v.1.15,2013-05-16 01:30:00,
2013-05-15 21:40:00,73.7,58.9,30.09,SE,144,0.0,0.0,60,0.00,,,0.00,Wunderground v.1.15,2013-05-16 01:40:00,
2013-05-15 21:50:00,73.4,59.1,30.10,SE,144,0.0,0.0,61,0.00,,,0.00,Wunderground v.1.15,2013-05-16 01:50:00,
2013-05-15 22:00:00,73.2,59.4,30.10,SE,132,0.0,0.0,62,0.00,,,0.00,Wunderground v.1.15,2013-05-16 02:00:00,
2013-05-15 22:10:00,72.9,59.6,30.10,SE,134,0.0,0.0,63,0.00,,,0.00,Wunderground v.1.15,2013-05-16 02:10:00,
2013-05-15 22:20:00,72.6,60.2,30.10,SE,143,0.0,0.0,65,0.00,,,0.00,Wunderground v.1.15,2013-05-16 02:20:00,
2013-05-15 22:30:00,72.3,60.3,30.10,SE,144,1.0,1.0,66,0.00,,,0.00,Wunderground v.1.15,2013-05-16 02:30:00,
2013-05-15 22:35:00,72.2,60.6,30.10,SE,142,1.0,1.0,67,0.00,,,0.00,Wunderground v.1.15,2013-05-16 02:35:00,
2013-05-15 22:45:00,72.0,60.4,30.10,SE,134,0.0,1.0,67,0.00,,,0.00,Wunderground v.1.15,2013-05-16 02:45:00,
2013-05-15 22:55:00,71.8,60.7,30.10,SE,137,0.0,2.0,68,0.00,,,0.00,Wunderground v.1.15,2013-05-16 02:55:00,
2013-05-15 23:05:00,71.5,60.4,30.09,SE,140,1.0,2.0,68,0.00,,,0.00,Wunderground v.1.15,2013-05-16 03:05:00,
2013-05-15 23:15:00,71.2,60.5,30.09,SE,140,0.0,0.0,69,0.00,,,0.00,Wunderground v.1.15,2013-05-16 03:15:00,
2013-05-15 23:30:00,70.9,60.6,30.09,SE,140,0.0,0.0,70,0.00,,,0.00,Wunderground v.1.15,2013-05-16 03:30:00,
2013-05-15 23:35:00,70.8,60.5,30.09,SE,140,0.0,0.0,70,0.00,,,0.00,Wunderground v.1.15,2013-05-16 03:35:00,
2013-05-15 23:45:00,70.6,60.7,30.09,SE,140,0.0,0.0,71,0.00,,,0.00,Wunderground v.1.15,2013-05-16 03:45:00,